sat.trackr.live / text

‹ back to catalog

STARLINK-5825

NORAD 55783 · 2023-028AU

PAYLOAD ACTIVE UNKNOWN

§ Identity

Operator
Country
US
Launch date
2023-03-03
Launch site
AFWTR
Launch vehicle
Mass (kg)
RCS (m²)

Purposes: comms

External: N2YO · Heavens-Above · Gunter

§ Orbital elements

Epoch: 2026-09-20T22:00:03.000096Z

Period
95.52 min
Inclination
70.0014°
Eccentricity
0.0003472
Mean motion
15.07616305 rev/d
Perigee alt
541.1 km
Apogee alt
545.9 km
Semi-major
6,921.6 km
B*
5.1410e-3
RAAN
72.2927°
Arg perigee
238.9747°
Mean anomaly
267.4960°
Rev number
572

§ Raw data

STARLINK-58251 55783U 23028AU  26263.91670139  .00079219  00000+0  51410-2 0  99982 55783  70.0014  72.2927 0003472 238.9747 267.4960 15.07616305  5729

JSON: /api/v1/satellites/55783 · /tle

For live sub-satellite position, see the globe view (requires WebGL).

§ Visibility from observer

Set your observer location to see the next 7 days of passes ≥ 10°. The values pass through the URL so the page stays shareable.

No JS? Fill the form by hand. The geolocation button needs JavaScript.